Hourly Data Report for April 17, 2004

TORONTO CITY
ONTARIO

43°40'00.000" N
79°24'00.000" W
112.50 m
6158355
71508
XTO

Download Data

Hourly Data (April 2004)
Hourly Data Report for April 17, 2004
TIME
LST
Temp Definition
°C
Dew Point Definition
°C
Rel Hum Definition
%
Precip. Amount Definition
mm

Wind Dir Definition
10's deg

Wind Spd Definition
km/h
Visibility Definition
km
Stn Press Definition
kPa
Hmdx Definition


Wind Chill Definition


Weather Definition


00:00 8.7 -0.4 53   LegendMM LegendMM LegendMM 100.54     LegendNANA
01:00 8.5 -0.4 53   LegendMM LegendMM LegendMM 100.47     LegendNANA
02:00 7.5 0.3 60   LegendMM LegendMM LegendMM 100.41     LegendNANA
03:00 7.3 -0.5 58   LegendMM LegendMM LegendMM 100.31     LegendNANA
04:00 6.9 0.1 62   LegendMM LegendMM LegendMM 100.28     LegendNANA
05:00 7.0 0.7 64   LegendMM LegendMM LegendMM 100.32     LegendNANA
06:00 7.8 1.0 62   LegendMM LegendMM LegendMM 100.32     LegendNANA
07:00 9.6 2.9 63   LegendMM LegendMM LegendMM 100.33     LegendNANA
08:00 9.6 2.7 62   LegendMM LegendMM LegendMM 100.40     LegendNANA
09:00 9.6 4.6 71   LegendMM LegendMM LegendMM 100.46     LegendNANA
10:00 11.1 9.7 91   LegendMM LegendMM LegendMM 100.53     LegendNANA
11:00 10.0 8.9 93   LegendMM LegendMM LegendMM 100.51     LegendNANA
12:00 12.3 10.4 88   LegendMM LegendMM LegendMM 100.47     LegendNANA
13:00 13.1 11.0 87   LegendMM LegendMM LegendMM 100.53     LegendNANA
14:00 14.3 11.1 81   LegendMM LegendMM LegendMM 100.53     LegendNANA
15:00 13.3 10.1 81   LegendMM LegendMM LegendMM 100.56     LegendNANA
16:00 15.2 11.0 76   LegendMM LegendMM LegendMM 100.56     LegendNANA
17:00 18.0 13.5 75   LegendMM LegendMM LegendMM 100.65     LegendNANA
18:00 18.2 13.9 76   LegendMM LegendMM LegendMM 100.69     LegendNANA
19:00 17.2 13.3 78   LegendMM LegendMM LegendMM 100.76     LegendNANA
20:00 16.0 12.6 80   LegendMM LegendMM LegendMM 100.85     LegendNANA
21:00 14.5 11.7 83   LegendMM LegendMM LegendMM 100.91     LegendNANA
22:00 12.0 9.7 86   LegendMM LegendMM LegendMM 101.00     LegendNANA
23:00 13.2 10.9 86   LegendMM LegendMM LegendMM 101.04     LegendNANA

Notes on Data Quality.

Legend

  • E = Estimated
  • M = Missing
  • NA = Not Available*
  • [empty] = Indicates an unobserved value
Date modified: